Location: Sydney
(46.1500°N, 60.1670°W)
Time: 09:08:56
(UTC-03:00)

Iridium 90 - Visible Passes

Search period start: 28 March 2017 00:00
Search period end: 07 April 2017 00:00
Orbit: 747 x 750 km, 86.5° (Epoch: 26 March)

Date Brightness Start Highest point End Pass type
(mag) Time Alt. Az. Time Alt. Az. Time Alt. Az.
28 Mar 8.3 00:32:51 10° NNE 00:33:02 11° NNE 00:33:02 11° NNE visible
28 Mar 7.9 02:11:48 10° N 02:12:54 17° NNW 02:12:54 17° NNW visible
29 Mar 7.9 01:29:43 10° N 01:31:00 18° N 01:31:00 18° N visible
30 Mar 8.1 00:48:04 10° NNE 00:49:07 15° NNE 00:49:07 15° NNE visible
30 Mar 7.9 02:28:03 10° NNW 02:28:58 15° NNW 02:28:58 15° NNW visible
31 Mar 8.3 00:07:13 10° NE 00:07:13 10° NE 00:07:13 10° NE visible
31 Mar 7.8 01:45:41 10° N 01:47:05 19° N 01:47:05 19° N visible
01 Apr 7.8 01:03:42 10° N 01:05:12 19° NNE 01:05:12 19° NNE visible
01 Apr 8.0 02:44:41 10° NNW 02:45:04 11° NW 02:45:04 11° NW visible
02 Apr 8.0 00:22:11 10° NNE 00:23:19 15° NNE 00:23:19 15° NNE visible
02 Apr 7.8 02:01:51 10° NNW 02:03:11 18° NNW 02:03:11 18° NNW visible
03 Apr 7.7 01:19:35 10° N 01:21:18 22° N 01:21:18 22° N visible
04 Apr 7.7 00:37:42 10° N 00:39:25 20° NNE 00:39:25 20° NNE visible
04 Apr 7.9 02:18:19 10° NNW 02:19:17 14° NW 02:19:17 14° NW visible
04 Apr 7.9 23:56:22 10° NNE 23:57:33 15° NE 23:57:33 15° NE visible
05 Apr 7.6 01:35:41 10° NNW 01:37:25 21° NNW 01:37:25 21° NNW visible
06 Apr 7.5 00:53:30 10° N 00:55:32 24° N 00:55:32 24° N visible
06 Apr 8.1 02:35:23 10° NW 02:35:24 10° NW 02:35:24 10° NW visible
